UAL5195 KDCA-KEWR

Flight info

Callsign UAL5195
Flight time 0h 41m
Altitude 27000
Route SOOKI6 SWANN PHLBO4
Aircraft B738/M-SDE2E3FGHIRWXY/LB1

Departure

Time 2026-05-04 20:09
Airport Ronald Reagan Washington National Airport (KDCA)

Arrival

Time 2026-05-04 20:51
Airport Newark Liberty International Airport (KEWR)
Time Latitude Longitude Altitude Speed Heading
2026-05-04 19:47 38.84647 -77.04331 23 ft 0 kts 62°
2026-05-04 19:58 38.84646 -77.04333 23 ft 2 kts 62°
2026-05-04 19:58 38.84635 -77.04362 23 ft 4 kts 72°
2026-05-04 19:58 38.84633 -77.04394 27 ft 4 kts 111°
2026-05-04 19:58 38.84644 -77.04417 25 ft 1 kts 140°
2026-05-04 20:01 38.84643 -77.04416 23 ft 2 kts 140°
2026-05-04 20:01 38.84600 -77.04370 23 ft 15 kts 139°
2026-05-04 20:01 38.84568 -77.04233 23 ft 17 kts 75°
2026-05-04 20:01 38.84598 -77.04087 25 ft 17 kts 65°
2026-05-04 20:02 38.84688 -77.04005 23 ft 16 kts 25°
2026-05-04 20:02 38.84790 -77.03947 24 ft 17 kts 12°
2026-05-04 20:02 38.84907 -77.03952 24 ft 18 kts 355°
2026-05-04 20:02 38.85043 -77.03965 23 ft 20 kts 355°
2026-05-04 20:03 38.85182 -77.03980 23 ft 20 kts 355°
2026-05-04 20:03 38.85314 -77.03993 23 ft 17 kts 355°
2026-05-04 20:03 38.85449 -77.04006 23 ft 21 kts 355°
2026-05-04 20:03 38.85586 -77.04037 27 ft 20 kts 356°
2026-05-04 20:04 38.85713 -77.04049 26 ft 17 kts 355°
2026-05-04 20:04 38.85833 -77.04061 28 ft 18 kts 355°
2026-05-04 20:04 38.85944 -77.04052 24 ft 15 kts 17°
2026-05-04 20:04 38.86027 -77.04004 25 ft 7 kts 78°
2026-05-04 20:05 38.86013 -77.03980 26 ft 4 kts 136°
2026-05-04 20:05 38.86015 -77.03959 25 ft 3 kts 54°
2026-05-04 20:05 38.86022 -77.03954 23 ft 0 kts 23°
2026-05-04 20:08 38.86023 -77.03953 23 ft 3 kts 23°
2026-05-04 20:08 38.86079 -77.03905 22 ft 13 kts 76°
2026-05-04 20:08 38.86012 -77.03862 26 ft 13 kts 176°
2026-05-04 20:08 38.85970 -77.03857 24 ft 0 kts 175°
2026-05-04 20:09 38.85927 -77.03853 26 ft 33 kts 176°
2026-05-04 20:09 38.85353 -77.03796 23 ft 129 kts 175°
2026-05-04 20:09 38.84222 -77.03670 323 ft 183 kts 177°
2026-05-04 20:09 38.82877 -77.03496 1261 ft 201 kts 176°
2026-05-04 20:10 38.81434 -77.03276 2127 ft 220 kts 176°
2026-05-04 20:10 38.79903 -77.02875 3132 ft 227 kts 154°
2026-05-04 20:10 38.78535 -77.01737 4009 ft 238 kts 162°
2026-05-04 20:10 38.76926 -77.01385 4862 ft 235 kts 176°
2026-05-04 20:11 38.75381 -77.00555 5493 ft 258 kts 142°
2026-05-04 20:11 38.74404 -76.98520 5992 ft 284 kts 105°
2026-05-04 20:11 38.74337 -76.95948 6735 ft 293 kts 88°
2026-05-04 20:11 38.74477 -76.93335 7560 ft 297 kts 79°
2026-05-04 20:12 38.75381 -76.90976 8376 ft 298 kts 44°
2026-05-04 20:12 38.77079 -76.89603 9232 ft 293 kts 13°
2026-05-04 20:12 38.79002 -76.88728 10087 ft 298 kts 25°
2026-05-04 20:12 38.80830 -76.87337 10499 ft 317 kts 28°
2026-05-04 20:13 38.82793 -76.85804 10700 ft 342 kts 27°
2026-05-04 20:13 38.84890 -76.84172 10993 ft 361 kts 28°
2026-05-04 20:13 38.87035 -76.82415 11592 ft 371 kts 33°
2026-05-04 20:13 38.89027 -76.80262 12309 ft 378 kts 39°
2026-05-04 20:14 38.90959 -76.77936 13073 ft 383 kts 40°
2026-05-04 20:14 38.92903 -76.75568 13835 ft 388 kts 39°
2026-05-04 20:14 38.94883 -76.73193 14563 ft 391 kts 39°
2026-05-04 20:14 38.96897 -76.70828 15359 ft 393 kts 38°
2026-05-04 20:15 38.98900 -76.68501 16140 ft 395 kts 38°
2026-05-04 20:15 39.00953 -76.66122 16874 ft 399 kts 38°
2026-05-04 20:15 39.02982 -76.63658 17614 ft 404 kts 41°
2026-05-04 20:15 39.04976 -76.61088 18334 ft 408 kts 41°
2026-05-04 20:16 39.06982 -76.58472 18920 ft 412 kts 41°
2026-05-04 20:16 39.09007 -76.55855 19573 ft 414 kts 41°
2026-05-04 20:16 39.11055 -76.53230 20214 ft 416 kts 40°
2026-05-04 20:16 39.13116 -76.50595 20821 ft 420 kts 40°
2026-05-04 20:17 39.15189 -76.47942 20960 ft 419 kts 40°
2026-05-04 20:17 39.17252 -76.45295 21015 ft 419 kts 40°
2026-05-04 20:17 39.19321 -76.42638 21017 ft 420 kts 40°
2026-05-04 20:17 39.21390 -76.39977 21019 ft 420 kts 40°
2026-05-04 20:18 39.23460 -76.37313 21034 ft 420 kts 40°
2026-05-04 20:18 39.25499 -76.34682 21026 ft 421 kts 40°
2026-05-04 20:18 39.27567 -76.32008 21020 ft 421 kts 40°
2026-05-04 20:18 39.29634 -76.29332 21025 ft 421 kts 40°
2026-05-04 20:19 39.31702 -76.26652 21022 ft 421 kts 40°
2026-05-04 20:19 39.33771 -76.23971 21018 ft 421 kts 40°
2026-05-04 20:19 39.35840 -76.21286 21012 ft 421 kts 40°
2026-05-04 20:19 39.37906 -76.18605 20992 ft 421 kts 40°
2026-05-04 20:20 39.39975 -76.15918 20988 ft 421 kts 40°
2026-05-04 20:20 39.42041 -76.13234 21008 ft 421 kts 40°
2026-05-04 20:20 39.44104 -76.10546 21002 ft 422 kts 40°
2026-05-04 20:20 39.46142 -76.07883 20998 ft 422 kts 40°
2026-05-04 20:21 39.48205 -76.05186 20990 ft 422 kts 40°
2026-05-04 20:21 39.50270 -76.02485 20994 ft 422 kts 40°
2026-05-04 20:21 39.54403 -75.97072 20997 ft 422 kts 40°
2026-05-04 20:22 39.56467 -75.94366 20999 ft 422 kts 40°
2026-05-04 20:22 39.58530 -75.91663 21012 ft 422 kts 40°
2026-05-04 20:22 39.60536 -75.88883 20995 ft 423 kts 48°
2026-05-04 20:22 39.62080 -75.85624 21012 ft 429 kts 62°
2026-05-04 20:23 39.63081 -75.81952 21006 ft 434 kts 72°
2026-05-04 20:23 39.63860 -75.78177 21015 ft 433 kts 71°
2026-05-04 20:23 39.64679 -75.74411 21004 ft 433 kts 70°
2026-05-04 20:23 39.65527 -75.70665 20997 ft 433 kts 70°
2026-05-04 20:24 39.66387 -75.66927 20995 ft 432 kts 70°
2026-05-04 20:24 39.67246 -75.63250 20996 ft 430 kts 67°
2026-05-04 20:24 39.68602 -75.59857 20995 ft 420 kts 47°
2026-05-04 20:24 39.70581 -75.57131 21011 ft 413 kts 38°
2026-05-04 20:25 39.72696 -75.54615 20999 ft 413 kts 37°
2026-05-04 20:25 39.74837 -75.52117 20996 ft 413 kts 37°
2026-05-04 20:25 39.76971 -75.49616 20999 ft 413 kts 37°
2026-05-04 20:25 39.79095 -75.47100 20999 ft 413 kts 37°
2026-05-04 20:26 39.81211 -75.44567 20984 ft 414 kts 38°
2026-05-04 20:26 39.83322 -75.42024 20990 ft 414 kts 38°
2026-05-04 20:26 39.85423 -75.39482 20984 ft 410 kts 38°
2026-05-04 20:26 39.87475 -75.36989 20787 ft 399 kts 38°
2026-05-04 20:27 39.89495 -75.34538 20382 ft 394 kts 38°
2026-05-04 20:27 39.91499 -75.32109 19835 ft 393 kts 38°
2026-05-04 20:27 39.93501 -75.29683 19293 ft 393 kts 38°
2026-05-04 20:27 39.95474 -75.27288 18783 ft 392 kts 38°
2026-05-04 20:28 39.97462 -75.24871 18319 ft 390 kts 38°
2026-05-04 20:28 39.99447 -75.22455 17774 ft 389 kts 38°
2026-05-04 20:28 40.01417 -75.20055 17295 ft 386 kts 38°
2026-05-04 20:28 40.03370 -75.17672 16833 ft 383 kts 38°
2026-05-04 20:29 40.05311 -75.15304 16358 ft 381 kts 39°
2026-05-04 20:29 40.07239 -75.12950 15879 ft 379 kts 39°
2026-05-04 20:29 40.09159 -75.10606 15404 ft 377 kts 39°
2026-05-04 20:29 40.11064 -75.08276 15035 ft 372 kts 39°
2026-05-04 20:30 40.12918 -75.06004 14937 ft 359 kts 39°
2026-05-04 20:30 40.14709 -75.03805 14853 ft 347 kts 38°
2026-05-04 20:30 40.16443 -75.01677 14785 ft 336 kts 38°
2026-05-04 20:30 40.18116 -74.99624 14700 ft 325 kts 38°
2026-05-04 20:31 40.19721 -74.97656 14592 ft 316 kts 38°
2026-05-04 20:31 40.21315 -74.95701 14379 ft 313 kts 38°
2026-05-04 20:31 40.22902 -74.93754 14055 ft 313 kts 38°
2026-05-04 20:31 40.24491 -74.91801 13758 ft 313 kts 39°
2026-05-04 20:32 40.26056 -74.89828 13445 ft 313 kts 41°
2026-05-04 20:32 40.27541 -74.87758 13143 ft 311 kts 43°
2026-05-04 20:32 40.29002 -74.85673 12843 ft 310 kts 44°
2026-05-04 20:32 40.30457 -74.83601 12563 ft 308 kts 43°
2026-05-04 20:33 40.31906 -74.81552 12261 ft 306 kts 43°
2026-05-04 20:33 40.33356 -74.79511 11971 ft 305 kts 43°
2026-05-04 20:33 40.34797 -74.77484 11716 ft 303 kts 43°
2026-05-04 20:33 40.36228 -74.75472 11439 ft 301 kts 43°
2026-05-04 20:34 40.37633 -74.73494 11168 ft 300 kts 43°
2026-05-04 20:34 40.39053 -74.71494 10886 ft 299 kts 43°
2026-05-04 20:34 40.40463 -74.69507 10622 ft 297 kts 43°
2026-05-04 20:34 40.41912 -74.67601 10345 ft 292 kts 32°
2026-05-04 20:35 40.43710 -74.66511 10029 ft 282 kts
2026-05-04 20:35 40.45608 -74.65966 9751 ft 279 kts
2026-05-04 20:35 40.47511 -74.65486 9429 ft 278 kts
2026-05-04 20:35 40.49411 -74.65008 9117 ft 278 kts
2026-05-04 20:36 40.51305 -74.64523 8826 ft 277 kts
2026-05-04 20:36 40.53172 -74.64035 8530 ft 277 kts
2026-05-04 20:36 40.55061 -74.63535 8217 ft 278 kts
2026-05-04 20:36 40.56954 -74.63031 7931 ft 277 kts
2026-05-04 20:37 40.58838 -74.62526 7656 ft 276 kts
2026-05-04 20:37 40.60720 -74.62021 7387 ft 276 kts
2026-05-04 20:37 40.62596 -74.61518 7116 ft 275 kts
2026-05-04 20:37 40.64466 -74.61016 6856 ft 274 kts
2026-05-04 20:38 40.66337 -74.60515 6550 ft 274 kts
2026-05-04 20:38 40.68209 -74.60013 6261 ft 274 kts
2026-05-04 20:38 40.70075 -74.59512 5977 ft 273 kts
2026-05-04 20:38 40.71939 -74.59010 5672 ft 274 kts
2026-05-04 20:39 40.73797 -74.58510 5469 ft 271 kts
2026-05-04 20:39 40.75650 -74.58013 5198 ft 271 kts
2026-05-04 20:39 40.77490 -74.57516 4894 ft 271 kts
2026-05-04 20:39 40.79305 -74.57026 4721 ft 268 kts
2026-05-04 20:40 40.81138 -74.56534 4405 ft 270 kts
2026-05-04 20:40 40.82981 -74.56037 4188 ft 269 kts
2026-05-04 20:40 40.84801 -74.55599 4068 ft 264 kts
2026-05-04 20:40 40.86594 -74.55219 4004 ft 260 kts
2026-05-04 20:41 40.88382 -74.54854 3990 ft 260 kts
2026-05-04 20:41 40.90088 -74.53976 3923 ft 272 kts 37°
2026-05-04 20:41 40.91161 -74.51939 3918 ft 276 kts 73°
2026-05-04 20:41 40.91358 -74.49427 3837 ft 276 kts 99°
2026-05-04 20:42 40.90855 -74.47019 3770 ft 270 kts 115°
2026-05-04 20:42 40.90133 -74.44750 3584 ft 266 kts 116°
2026-05-04 20:42 40.89392 -74.42507 3271 ft 268 kts 116°
2026-05-04 20:42 40.88651 -74.40265 3052 ft 266 kts 116°
2026-05-04 20:43 40.88143 -74.37938 2737 ft 269 kts 105°
2026-05-04 20:43 40.87677 -74.35554 2494 ft 266 kts 109°
2026-05-04 20:43 40.87174 -74.33237 2360 ft 259 kts 109°
2026-05-04 20:43 40.86676 -74.30929 2022 ft 265 kts 110°
2026-05-04 20:44 40.86186 -74.28607 1982 ft 260 kts 109°
2026-05-04 20:44 40.85684 -74.26317 1982 ft 257 kts 109°
2026-05-04 20:44 40.85197 -74.24105 1983 ft 246 kts 110°
2026-05-04 20:44 40.84795 -74.21986 1962 ft 232 kts 97°
2026-05-04 20:45 40.84956 -74.19943 1987 ft 217 kts 80°
2026-05-04 20:45 40.85249 -74.18034 1981 ft 210 kts 81°
2026-05-04 20:45 40.85514 -74.16165 1990 ft 202 kts 81°
2026-05-04 20:45 40.85767 -74.14422 2002 ft 192 kts 81°
2026-05-04 20:46 40.86019 -74.12617 2045 ft 206 kts 83°
2026-05-04 20:46 40.85909 -74.10763 2014 ft 201 kts 118°
2026-05-04 20:46 40.85097 -74.09310 1990 ft 195 kts 138°
2026-05-04 20:46 40.84141 -74.08079 1978 ft 188 kts 152°
2026-05-04 20:47 40.82963 -74.07731 1981 ft 171 kts 200°
2026-05-04 20:47 40.81930 -74.08402 1988 ft 165 kts 210°
2026-05-04 20:47 40.80936 -74.09030 2015 ft 150 kts 209°
2026-05-04 20:47 40.80048 -74.09605 1980 ft 138 kts 210°
2026-05-04 20:48 40.79156 -74.10121 1879 ft 137 kts 206°
2026-05-04 20:48 40.78282 -74.10554 1713 ft 127 kts 206°
2026-05-04 20:48 40.77499 -74.10994 1626 ft 124 kts 212°
2026-05-04 20:48 40.76725 -74.11549 1499 ft 130 kts 211°
2026-05-04 20:49 40.75916 -74.12120 1308 ft 135 kts 212°
2026-05-04 20:49 40.75105 -74.12691 1237 ft 133 kts 211°
2026-05-04 20:49 40.74257 -74.13247 1038 ft 141 kts 211°
2026-05-04 20:49 40.73359 -74.13763 861 ft 146 kts 205°
2026-05-04 20:50 40.72469 -74.14358 717 ft 141 kts 215°
2026-05-04 20:50 40.71583 -74.14961 455 ft 144 kts 207°
2026-05-04 20:50 40.70715 -74.15508 258 ft 133 kts 206°
2026-05-04 20:50 40.69929 -74.16033 60 ft 123 kts 204°
2026-05-04 20:51 40.69224 -74.16490 24 ft 102 kts 206°
2026-05-04 20:51 40.68664 -74.16850 21 ft 68 kts 207°
2026-05-04 20:51 40.68440 -74.16993 21 ft 14 kts 205°
2026-05-04 20:51 40.68358 -74.17052 21 ft 14 kts 216°
2026-05-04 20:52 40.68289 -74.17137 21 ft 15 kts 226°
2026-05-04 20:52 40.68244 -74.17214 21 ft 8 kts 238°
2026-05-04 20:52 40.68216 -74.17269 21 ft 4 kts 235°
2026-05-04 20:52 40.68205 -74.17291 21 ft 0 kts 235°
2026-05-04 20:53 40.68204 -74.17292 21 ft 2 kts 235°
2026-05-04 20:53 40.68175 -74.17346 21 ft 6 kts 235°
2026-05-04 20:53 40.68149 -74.17395 20 ft 7 kts 235°
2026-05-04 20:54 40.68144 -74.17435 20 ft 0 kts 278°
2026-05-04 20:55 40.68154 -74.17485 20 ft 9 kts 297°
2026-05-04 20:56 40.68187 -74.17566 20 ft 13 kts 297°
2026-05-04 20:56 40.68239 -74.17664 21 ft 13 kts 336°
2026-05-04 20:56 40.68289 -74.17737 21 ft 13 kts 240°
2026-05-04 20:56 40.68212 -74.17798 21 ft 12 kts 205°
2026-05-04 20:57 40.68194 -74.17885 23 ft 12 kts 292°
2026-05-04 20:57 40.68230 -74.17989 20 ft 13 kts 288°
2026-05-04 20:57 40.68238 -74.18113 21 ft 14 kts 275°
2026-05-04 20:57 40.68233 -74.18235 21 ft 13 kts 274°
2026-05-04 20:58 40.68241 -74.18352 21 ft 13 kts 275°
2026-05-04 20:58 40.68247 -74.18461 23 ft 12 kts 274°
2026-05-04 20:58 40.68248 -74.18546 21 ft 8 kts 261°
2026-05-04 20:58 40.68246 -74.18582 21 ft 1 kts 289°
2026-05-04 20:59 40.68273 -74.18628 21 ft 10 kts 331°
2026-05-04 20:59 40.68309 -74.18647 21 ft 3 kts 337°
2026-05-04 20:59 40.68313 -74.18650 21 ft 0 kts 337°